AEROCUBE 4.5A

Last updated on Wed Oct 29 2025 00:03:53 GMT+0000 (Coordinated Universal Time)

1 38767U 12048K 25301.20045635 .00053613 00000+0 10829-2 0 9991 2 38767 64.6428 114.0523 0082128 241.3245 117.9618 15.42535242336436
UTC large
Height (km)
Speed (km/s)
/
Latitude / Longitude
Inclination (degrees)
Orbital Period (minutes)
Azimuth
Elevation
Range (km)
Doppler Factor

Next 0 passes for location: London (51.5072 / 0.1276)

Sorry there are no passes over London.